SCP
0 -0 -0 -0 -0 0 0 -0 -0 0 -0 -0 -0 -0 -0 -0 0 -0 -0 0 0 0 -0 -0 -0 -0 -0 0 0 -0 0 -0 0 0 -0 0 -0 -0 -0 -0 0 0 -0 0 0 0 -0 -0 0
0 0 0 0 -0 -0 0 0 0 0 -0 -0 -0 -0 -0 -0 -0 -0 -0 0 0 0 0 -0 0 -0 -0 0 -0 0 0 0 0 0 0 0 0 0 0 -0 0 0 0 0 0 0 0 0 0
-0 -0 0 0 -0 0 -0 -0 -0 -0 -0 -0 -0 -0 0 -0 -0 -0 0 -0 -0 0 -0 0 -0 -0 -0 -0 0 0 0 0 0 0 0 0 -0 0 -0 0 0 0 0 0 0 0 0 0 0
-0 -0 -0 0 -0 -0 0 0 -0 -0 -0 -0 -0 -0 -0 0 0 0 -0 -0 -0 0 -0 0 -0 -0 0 -0 0 0 0 0 0 0 -0 -0 -0 -0 -0 0 0 0 0 0 0 0 0 0 0
0 0 0 0 0 -0 0 -0 0 -0 -0 -0 -0 -0 0 0 -0 -0 -0 -0 -0 -0 -0 0 0 -0 0 0 0 0 0 0 0 0 -0 -0 -0 -0 0 0 0 0 0 0 0 0 0 0 0
0 0 0 -0 0 -0 0 -0 -0 -0 -0 -0 -0 -0 -0 0 0 -0 -0 -0 -0 -0 0 0 0 -0 -0 0 0 0 0 0 0 0 0 0 0 0 0 0 0 0 0 0 0 0 0 0 0
0 0 0 0 -0 -0 -0 -0 -0 -0 -0 -0 -0 -0 -0 0 -0 -0 -0 -0 -0 0 -0 -0 0 0 -0 0 0 0 0 0 0 0 0 0 0 0 0 0 0 0 0 0 0 0 0 0 0
0 -0 0 0 -0 0 -0 -0 -0 -0 -0 -0 -0 -0 0 -0 -0 -0 -0 0 -0 -0 -0 0 0 -0 0 0 0 0 0 0 0 0 0 0 0 0 0 0 0 0 0 0 0 0 0 0 -0
0 0 0 0 0 0 -0 0 -0 -0 -0 -0 0 0 0 -0 -0 -0 0 0 0 -0 -0 -0 0 0 0 0 0 0 0 0 0 0 0 0 0 0 0 0 0 0 0 0 0 -0 -0 -0 -0
0 0 0 -0 0 -0 -0 -0 -0 -0 -0 -0 -0 -0 -0 -0 -0 -0 0 0 -0 -0 -0 -0 0 -0 0 0 0 0 0 0 0 0 0 0 0 0 0 0 0 0 0 0 -0 -0 -0 -0 0
0 0 0 0 0 -0 -0 -0 0 -0 -0 -0 -0 -0 -0 -0 0 0 0 0 -0 -0 -0 -0 0 0 0 0 0 0 0 0 0 0 0 0 0 0 0 0 0 0 0 0 0 0 0 -0 -0
0 -0 0 0 -0 -0 -0 -0 0 -0 -0 -0 -0 -0 -0 0 -0 0 -0 -0 0 -0 -0 -0 -0 0 0 0 0 0 0 0 0 0 0 0 0 0 0 0 0 0 0 0 -0 0 -0 -0 -0
-0 0 -0 0 0 0 -0 -0 0 -0 -0 -0 -0 -0 -0 -0 -0 0 -0 -0 0 -0 -0 -0 0 0 0 0 0 0 0 0 0 0 0 0 0 0 0 0 0 0 0 0 -0 -0 -0 -0 0
-0 -0 -0 -0 0 0 0 0 0 0 0 -0 -0 -0 -0 -0 -0 -0 0 -0 -0 -0 -0 0 0 0 0 0 0 0 0 0 0 0 0 0 0 0 0 0 0 0 0 0 -0 0 -0 -0 -0
-0 -0 -0 0 0 -0 0 -0 0 0 -0 -0 -0 -0 -0 -0 -0 -0 0 0 0 -0 -0 -0 -0 0 0 0 0 0 0 0 0 0 0 0 0 -0 0 0 0 0 0 -0 0 -0 -0 -0 0
0 -0 -0 0 -0 0 0 0 0 0 -0 -0 -0 -0 -0 -0 -0 -0 0 0 0 -0 -0 -0 -0 0 0 0 0 0 0 0 0 0 0 0 0 0 0 0 0 0 -0 -0 -0 -0 -0 0 0
0 -0 -0 -0 -0 0 0 0 0 0 -0 0 -0 -0 -0 -0 -0 -0 0 0 0 0 -0 -0 -0 -0 0 0 0 0 0 0 0 0 0 0 0 -0 0 0 0 -0 -0 -0 0 -0 0 0 0
0 -0 -0 -0 0 -0 0 0 0 0 0 0 0 0 -0 -0 -0 -0 -0 0 0 -0 -0 -0 -0 0 0 0 0 0 0 0 0 0 0 0 0 0 0 0 0 -0 0 0 0 -0 0 -0 0
0 0 0 -0 0 0 -0 -0 0 0 0 0 0 0 -0 -0 -0 -0 -0 0 -0 0 -0 -0 -0 -0 0 0 0 0 0 0 0 0 -0 0 0 -0 0 0 0 -0 0 0 -0 -0 -0 0 0
-0 -0 -0 0 0 0 -0 -0 -0 -0 0 0 -0 0 -0 -0 -0 -0 -0 -0 -0 -0 0 0 0 0 -0 0 0 0 0 0 0 -0 0 -0 -0 0 0 0 -0 -0 0 0 -0 -0 -0 0 0
0 -0 0 -0 -0 0 0 -0 -0 0 0 -0 0 -0 0 0 0 -0 -0 -0 -0 0 0 0 0 0 -0 -0 -0 0 0 0 0 0 0 -0 -0 0 0 0 -0 0 0 0 0 0 0 0 0
-0 0 0 0 -0 0 -0 0 0 -0 -0 -0 -0 0 0 -0 0 0 -0 -0 -0 0 0 0 0 0 0 -0 -0 -0 -0 0 0 -0 -0 0 0 0 0 -0 0 0 0 0 0 -0 -0 -0 0
0 -0 -0 0 0 0 0 0 0 -0 -0 -0 -0 -0 -0 0 0 0 0 0 0 0 0 0 0 0 0 0 -0 -0 -0 0 0 -0 -0 -0 0 0 0 -0 -0 0 0 0 -0 0 0 0 0
0 -0 0 0 0 0 0 0 0 0 0 -0 -0 -0 0 0 -0 0 0 0 0 0 0 0 0 0 0 0 -0 -0 -0 0 -0 -0 -0 -0 0 -0 0 -0 -0 -0 -0 -0 0 0 0 -0 0
0 0 0 0 0 0 0 0 0 0 0 -0 0 0 -0 -0 0 -0 0 0 0 0 0 0 0 0 0 0 0 0 0 0 0 -0 -0 -0 0 -0 -0 -0 -0 -0 -0 0 0 0 -0 -0 -0
0 0 0 0 0 0 0 0 -0 0 0 0 0 0 0 0 -0 0 0 0 0 0 0 0 0 0 0 0 0 0 0 0 0 0 0 -0 -0 -0 -0 0 -0 0 0 -0 0 0 0 -0 -0
0 0 0 0 0 0 0 0 -0 -0 0 0 -0 0 0 0 0 0 0 0 0 0 0 0 0 0 0 0 0 0 0 0 0 0 0 0 0 0 0 0 0 0 -0 -0 -0 0 0 0 0
-0 0 0 0 0 0 0 0 -0 -0 -0 0 0 0 0 0 0 0 0 0 0 0 0 0 0 0 0 0 0 0 0 0 0 0 0 0 0 0 0 0 0 0 0 0 0 0 0 0 0
0 0 0 0 0 0 0 0 0 -0 -0 -0 0 0 0 0 0 0 0 0 0 0 0 0 0 0 0 0 0 0 0 0 0 0 0 0 0 0 0 0 0 0 0 0 0 0 0 0 -0
0 0 0 0 0 0 0 0 -0 -0 -0 -0 -0 0 -0 0 0 0 0 0 0 0 0 0 0 0 0 0 0 0 0 0 0 0 0 0 0 0 0 0 0 0 0 0 0 0 0 0 -0
Wind_Speed_500mb
5 15 15 4 7 9 7 6 11 8 10 26 33 21 23 31 4 8 35 29 36 34 34 33 33 34 34 34 35 32 25 23 26 32 35 29 29 30 30 27 26 26 26 27 28 28 25 25 26
7 16 10 7 9 7 6 8 18 16 42 56 47 36 28 12 21 36 39 35 19 32 34 33 32 31 33 36 35 33 33 25 27 35 34 28 30 30 31 29 28 23 23 25 27 27 26 26 29
6 19 9 7 6 4 6 9 33 45 44 18 19 29 12 16 23 32 33 32 27 31 31 33 32 30 31 36 36 34 36 33 31 33 35 32 31 30 30 26 24 21 20 21 23 26 28 35 35
18 20 15 6 6 5 10 15 42 37 34 38 43 18 18 21 36 34 34 26 21 26 31 34 34 32 33 36 38 35 33 31 33 29 31 33 31 27 26 24 22 21 20 21 22 24 27 33 31
25 12 5 6 11 14 16 40 40 29 23 44 40 20 15 35 40 38 34 22 25 28 36 39 37 37 36 41 39 37 35 31 28 27 29 29 26 27 26 22 21 21 21 23 21 21 24 29 29
20 8 5 6 7 13 7 51 45 46 44 49 49 35 19 54 48 35 22 22 28 39 39 41 39 43 45 40 42 36 33 28 27 25 27 25 26 22 22 21 22 22 23 23 21 21 23 26 26
17 3 5 17 3 8 23 47 36 51 40 23 52 27 41 42 43 29 24 27 36 36 42 44 43 44 46 40 39 34 32 28 25 24 24 24 20 20 20 21 22 23 21 21 21 24 22 26 30
18 7 3 8 7 13 18 30 60 53 22 53 59 17 36 52 48 30 34 34 33 33 43 43 42 41 45 44 39 37 28 27 28 26 23 20 20 20 21 21 21 20 19 18 22 26 28 27 29
29 7 5 8 10 16 37 11 28 41 62 25 13 63 73 57 50 38 40 40 34 33 38 40 37 36 41 46 42 35 24 26 31 30 28 24 21 21 21 18 17 17 15 17 22 27 26 24 25
10 6 12 5 14 11 39 20 40 39 42 50 60 53 67 66 46 40 41 42 35 37 38 38 37 37 41 45 45 28 21 26 32 32 29 25 22 19 17 14 13 14 15 13 16 14 13 14 13
7 8 20 12 13 20 22 22 18 48 33 75 72 75 78 65 32 39 42 32 33 36 37 42 42 42 42 43 43 31 33 31 22 23 19 17 20 20 17 15 12 14 12 6 4 2 10 15 18
10 13 19 29 14 13 15 3 26 33 36 74 83 94 85 56 48 45 44 39 37 36 39 44 45 50 48 45 42 34 26 19 23 22 18 19 19 19 14 13 13 10 6 5 6 7 8 3 6
15 10 16 27 26 21 22 22 18 33 49 71 73 88 80 56 64 48 43 37 42 39 38 40 42 44 45 41 36 32 32 24 18 15 10 5 12 8 11 14 6 7 7 6 8 2 0 7 11
20 25 28 16 16 4 11 13 15 17 38 71 70 73 83 55 70 55 48 48 51 44 39 34 39 37 33 27 28 26 34 19 17 9 9 7 15 16 14 15 14 8 6 7 10 10 13 19 10
40 14 13 22 12 10 2 11 9 12 29 69 70 71 69 64 70 49 42 49 50 45 39 40 37 35 29 22 16 14 24 20 13 15 10 9 19 22 13 16 15 15 13 10 8 7 15 22 13
5 8 11 12 27 18 17 6 2 6 26 37 60 57 73 63 62 49 51 48 48 44 40 42 37 26 28 23 32 18 21 27 10 12 6 18 11 8 17 11 24 11 12 10 9 12 14 13 11
6 6 6 10 36 10 9 8 10 8 15 9 16 61 63 68 59 49 51 56 54 42 38 34 39 28 31 28 18 16 16 15 15 7 6 11 19 10 18 19 20 13 10 5 5 7 15 13 19
11 9 9 8 13 4 10 9 4 10 6 7 7 21 56 68 69 53 59 57 52 45 38 34 31 26 25 24 25 25 27 19 18 15 11 12 14 5 14 9 11 11 14 11 4 7 12 23 14
11 6 10 4 9 9 12 11 13 15 20 17 18 3 44 46 66 65 65 62 54 45 42 41 32 33 31 33 39 32 27 20 17 12 14 11 12 6 11 5 18 10 15 13 3 1 3 14 18
19 14 9 6 5 4 5 14 12 20 19 33 19 16 14 31 60 62 67 70 61 47 46 44 38 37 32 29 31 31 21 18 19 18 15 11 10 6 8 8 22 15 14 8 10 1 9 6 14
15 20 10 6 10 11 6 10 9 10 23 42 35 34 26 26 59 54 69 79 62 53 52 45 50 45 33 26 31 32 30 27 24 20 17 17 14 13 8 11 26 18 7 8 8 8 4 10 14
13 21 25 17 11 9 18 8 10 14 18 21 46 50 35 36 38 56 67 79 68 57 53 45 47 49 36 36 40 33 36 28 24 18 14 17 19 15 12 9 16 14 14 10 6 5 4 5 12
12 33 32 25 18 8 6 4 9 15 16 26 46 49 50 39 44 59 71 77 67 56 50 39 49 48 42 43 40 32 32 22 26 23 22 16 17 17 12 9 11 15 13 9 5 4 6 6 7
15 18 8 7 8 5 9 14 6 7 7 12 35 50 52 55 53 55 55 62 66 62 55 47 48 51 47 49 43 29 38 34 24 32 29 23 22 17 18 15 9 9 8 8 6 6 5 4 2
13 12 6 1 3 12 13 13 8 11 4 9 27 53 61 62 60 59 60 45 55 62 61 51 42 42 45 52 47 40 33 31 23 28 27 19 19 22 28 19 10 13 13 19 14 6 5 4 8
5 14 10 9 7 11 8 2 8 12 6 5 21 37 52 60 68 67 61 65 48 42 65 57 51 42 45 51 53 44 39 41 28 26 27 30 26 22 28 27 20 13 11 4 3 9 11 4 3
7 1 13 6 3 7 5 5 12 10 9 19 39 27 66 78 81 72 56 68 49 39 58 64 59 49 44 42 46 52 44 41 38 34 37 30 20 16 23 30 27 20 14 15 10 5 13 11 10
11 6 4 6 3 4 4 4 6 8 7 9 9 9 35 59 64 69 64 57 53 37 54 59 64 54 44 34 40 44 50 45 41 42 33 36 28 24 21 26 22 18 14 13 15 12 9 17 15
13 10 9 10 7 7 2 10 12 11 8 15 15 13 31 52 54 63 68 49 49 49 49 60 61 58 55 41 38 43 48 48 47 48 39 30 25 24 26 23 30 21 17 20 21 22 22 18 20
13 7 9 9 6 4 7 10 3 14 18 21 24 15 14 37 42 55 52 54 56 50 51 54 47 55 54 47 40 44 42 41 46 51 43 38 30 30 32 29 26 25 30 30 28 25 24 23 17
Wind_Direction_500mb
40 18 21 56 52 66 332 86 107 98 64 75 91 104 92 44 32 146 142 156 162 154 153 151 146 147 149 149 152 149 138 137 122 131 131 119 123 130 130 127 122 122 127 127 126 124 127 128 126
280 4 3 47 73 53 4 85 101 103 130 98 77 81 57 72 82 129 141 140 150 165 158 150 148 150 148 143 140 144 150 136 125 126 142 133 127 128 126 125 121 126 128 129 128 127 132 134 135
132 1 31 39 44 67 192 198 129 132 144 107 108 72 73 107 112 137 143 147 149 168 166 160 162 160 149 144 140 135 130 130 128 132 134 138 129 126 127 126 128 124 125 128 126 132 139 137 131
42 16 44 49 250 249 193 175 123 116 94 91 113 72 81 122 132 143 152 165 168 166 178 171 169 167 157 153 151 142 135 127 130 133 128 126 128 130 129 124 118 121 120 117 122 132 141 149 139
68 40 34 316 351 305 142 144 130 98 82 99 112 115 90 134 132 142 157 180 200 178 170 172 168 168 165 160 155 150 137 134 132 137 133 131 128 133 130 120 116 109 108 110 118 126 139 151 151
66 43 4 298 246 262 135 132 113 97 111 104 101 106 110 138 148 152 152 153 160 151 155 164 168 168 161 160 161 152 142 133 131 143 134 134 136 133 123 118 112 109 107 105 107 111 123 136 145
110 131 213 259 341 79 125 126 118 123 134 107 129 117 140 152 155 135 131 120 138 147 154 155 162 166 165 154 155 146 138 133 130 137 139 134 134 132 127 121 114 108 103 98 98 101 117 131 130
102 154 4 336 15 42 41 127 137 138 112 131 119 147 158 153 157 134 117 122 126 129 150 156 155 164 168 160 153 142 127 132 132 132 136 133 134 135 131 120 108 100 95 94 103 112 120 131 135
125 119 31 329 323 331 359 69 137 135 142 141 161 150 152 157 152 140 129 128 128 129 143 146 152 154 161 158 151 145 121 129 126 124 127 131 131 138 135 124 107 97 92 101 115 128 134 143 155
109 81 179 216 283 307 321 283 139 137 136 111 125 135 152 153 158 153 148 139 138 133 140 147 151 147 149 158 154 146 122 122 121 124 126 128 134 142 148 145 125 116 121 114 105 114 146 167 179
55 168 159 179 283 338 308 72 300 141 140 144 146 143 153 162 172 171 160 145 136 135 143 139 138 135 135 141 153 155 145 145 141 136 131 136 136 146 147 138 141 146 148 140 101 301 299 285 257
84 97 164 169 168 293 308 162 191 163 160 156 157 156 163 170 176 171 156 146 157 146 151 143 141 138 138 137 145 148 145 137 127 137 122 119 141 146 138 149 148 167 122 119 108 45 305 249 252
99 141 129 145 167 218 306 319 141 137 142 162 155 153 168 167 177 178 161 148 162 157 153 145 137 145 148 147 150 146 147 129 138 129 121 42 184 193 226 212 164 170 153 164 195 194 275 87 322
140 142 134 154 149 138 360 83 103 123 146 167 160 159 172 178 177 176 165 157 155 152 149 161 157 151 147 146 142 144 154 151 138 109 184 207 207 199 197 216 194 184 195 191 148 289 276 271 269
135 118 151 176 165 148 284 317 122 106 191 162 168 169 177 177 174 169 154 158 164 158 158 159 163 159 149 158 168 156 152 159 140 127 156 195 195 205 209 199 212 195 219 207 204 303 316 341 281
103 149 179 187 183 184 180 222 193 98 164 173 162 161 166 186 183 174 159 156 160 164 168 173 171 158 160 153 139 144 145 167 186 145 170 173 222 208 202 161 168 179 200 209 259 331 338 344 357
359 260 209 184 200 139 174 196 202 186 117 115 181 174 170 178 185 182 176 164 158 153 161 177 177 175 179 166 159 182 187 171 177 165 151 154 168 253 189 166 193 208 183 139 14 323 24 1 309
174 214 260 221 170 274 153 228 173 209 213 116 61 135 171 183 189 190 186 176 165 159 159 157 169 174 180 190 201 180 163 155 178 179 242 219 176 121 147 174 184 200 198 158 347 320 49 38 31
145 217 207 213 165 162 204 182 209 213 221 212 179 165 175 176 199 190 189 182 172 168 167 173 172 171 181 190 182 175 176 182 191 221 198 214 170 125 192 178 171 162 186 179 266 77 4 50 43
159 193 227 322 159 165 187 238 216 179 225 221 200 213 187 180 166 185 195 190 181 179 178 179 183 183 183 186 185 186 192 187 180 169 200 223 167 84 148 211 176 146 145 169 200 107 19 33 46
196 184 174 229 146 200 77 282 195 216 224 225 216 212 198 215 187 177 186 188 186 185 183 188 189 191 191 199 194 191 189 193 176 186 194 205 190 170 157 127 191 177 123 155 141 103 27 41 56
178 196 196 172 140 214 152 271 234 192 209 208 228 217 211 222 209 206 191 187 190 193 195 206 192 191 202 203 198 191 186 199 201 203 185 210 207 186 164 138 141 158 154 147 84 117 258 57 57
213 165 191 185 176 115 214 10 281 141 229 221 219 223 216 216 204 178 186 189 198 199 204 208 205 201 206 211 207 206 183 201 196 194 174 179 205 204 195 189 163 167 177 175 130 217 216 70 41
141 189 108 114 75 351 213 180 297 195 231 222 223 233 221 217 203 195 180 193 198 201 204 206 205 212 211 211 208 200 215 200 207 195 200 195 193 209 214 218 222 240 238 261 198 212 203 169 97
74 68 360 14 108 227 220 133 236 277 171 244 223 215 221 222 211 206 196 182 197 207 208 211 209 205 206 208 211 209 208 216 222 204 196 205 200 204 206 218 217 266 256 239 249 237 167 150 102
139 143 159 212 206 245 261 182 278 296 17 312 360 230 217 223 217 207 212 201 204 210 214 218 215 207 205 212 214 214 211 225 229 209 208 212 211 219 218 219 215 224 220 191 232 221 196 228 147
274 169 186 150 109 82 281 9 282 307 40 40 2 228 212 219 220 214 214 202 197 214 215 216 218 212 218 219 213 216 220 221 216 213 214 212 213 227 223 223 223 208 200 217 258 234 224 229 231
149 181 38 16 181 190 296 307 248 297 317 332 20 307 222 216 213 211 210 198 193 206 213 213 221 219 220 217 216 214 214 212 214 209 216 228 236 240 237 199 200 208 209 225 239 264 298 253 257
16 10 19 107 92 150 151 274 222 230 294 297 302 312 220 212 211 210 210 215 213 209 212 209 219 221 220 215 214 212 210 209 216 217 223 225 217 214 214 213 212 210 220 236 238 247 259 268 235
85 73 107 102 304 111 143 261 276 222 242 271 303 325 197 216 208 207 208 213 199 210 206 209 221 221 228 221 218 217 214 214 218 222 224 232 240 224 231 230 230 234 239 239 239 249 256 243 241
Wind_Speed_850mb
5 15 15 4 7 9 7 6 11 8 10 26 33 21 23 31 4 8 35 29 36 34 34 33 33 34 34 34 35 32 25 23 26 32 35 29 29 30 30 27 26 26 26 27 28 28 25 25 26
7 16 10 7 9 7 6 8 18 16 42 56 47 36 28 12 21 36 39 35 19 32 34 33 32 31 33 36 35 33 33 25 27 35 34 28 30 30 31 29 28 23 23 25 27 27 26 26 29
6 19 9 7 6 4 6 9 33 45 44 18 19 29 12 16 23 32 33 32 27 31 31 33 32 30 31 36 36 34 36 33 31 33 35 32 31 30 30 26 24 21 20 21 23 26 28 35 35
18 20 15 6 6 5 10 15 42 37 34 38 43 18 18 21 36 34 34 26 21 26 31 34 34 32 33 36 38 35 33 31 33 29 31 33 31 27 26 24 22 21 20 21 22 24 27 33 31
25 12 5 6 11 14 16 40 40 29 23 44 40 20 15 35 40 38 34 22 25 28 36 39 37 37 36 41 39 37 35 31 28 27 29 29 26 27 26 22 21 21 21 23 21 21 24 29 29
20 8 5 6 7 13 7 51 45 46 44 49 49 35 19 54 48 35 22 22 28 39 39 41 39 43 45 40 42 36 33 28 27 25 27 25 26 22 22 21 22 22 23 23 21 21 23 26 26
17 3 5 17 3 8 23 47 36 51 40 23 52 27 41 42 43 29 24 27 36 36 42 44 43 44 46 40 39 34 32 28 25 24 24 24 20 20 20 21 22 23 21 21 21 24 22 26 30
18 7 3 8 7 13 18 30 60 53 22 53 59 17 36 52 48 30 34 34 33 33 43 43 42 41 45 44 39 37 28 27 28 26 23 20 20 20 21 21 21 20 19 18 22 26 28 27 29
29 7 5 8 10 16 37 11 28 41 62 25 13 63 73 57 50 38 40 40 34 33 38 40 37 36 41 46 42 35 24 26 31 30 28 24 21 21 21 18 17 17 15 17 22 27 26 24 25
10 6 12 5 14 11 39 20 40 39 42 50 60 53 67 66 46 40 41 42 35 37 38 38 37 37 41 45 45 28 21 26 32 32 29 25 22 19 17 14 13 14 15 13 16 14 13 14 13
7 8 20 12 13 20 22 22 18 48 33 75 72 75 78 65 32 39 42 32 33 36 37 42 42 42 42 43 43 31 33 31 22 23 19 17 20 20 17 15 12 14 12 6 4 2 10 15 18
10 13 19 29 14 13 15 3 26 33 36 74 83 94 85 56 48 45 44 39 37 36 39 44 45 50 48 45 42 34 26 19 23 22 18 19 19 19 14 13 13 10 6 5 6 7 8 3 6
15 10 16 27 26 21 22 22 18 33 49 71 73 88 80 56 64 48 43 37 42 39 38 40 42 44 45 41 36 32 32 24 18 15 10 5 12 8 11 14 6 7 7 6 8 2 0 7 11
20 25 28 16 16 4 11 13 15 17 38 71 70 73 83 55 70 55 48 48 51 44 39 34 39 37 33 27 28 26 34 19 17 9 9 7 15 16 14 15 14 8 6 7 10 10 13 19 10
40 14 13 22 12 10 2 11 9 12 29 69 70 71 69 64 70 49 42 49 50 45 39 40 37 35 29 22 16 14 24 20 13 15 10 9 19 22 13 16 15 15 13 10 8 7 15 22 13
5 8 11 12 27 18 17 6 2 6 26 37 60 57 73 63 62 49 51 48 48 44 40 42 37 26 28 23 32 18 21 27 10 12 6 18 11 8 17 11 24 11 12 10 9 12 14 13 11
6 6 6 10 36 10 9 8 10 8 15 9 16 61 63 68 59 49 51 56 54 42 38 34 39 28 31 28 18 16 16 15 15 7 6 11 19 10 18 19 20 13 10 5 5 7 15 13 19
11 9 9 8 13 4 10 9 4 10 6 7 7 21 56 68 69 53 59 57 52 45 38 34 31 26 25 24 25 25 27 19 18 15 11 12 14 5 14 9 11 11 14 11 4 7 12 23 14
11 6 10 4 9 9 12 11 13 15 20 17 18 3 44 46 66 65 65 62 54 45 42 41 32 33 31 33 39 32 27 20 17 12 14 11 12 6 11 5 18 10 15 13 3 1 3 14 18
19 14 9 6 5 4 5 14 12 20 19 33 19 16 14 31 60 62 67 70 61 47 46 44 38 37 32 29 31 31 21 18 19 18 15 11 10 6 8 8 22 15 14 8 10 1 9 6 14
15 20 10 6 10 11 6 10 9 10 23 42 35 34 26 26 59 54 69 79 62 53 52 45 50 45 33 26 31 32 30 27 24 20 17 17 14 13 8 11 26 18 7 8 8 8 4 10 14
13 21 25 17 11 9 18 8 10 14 18 21 46 50 35 36 38 56 67 79 68 57 53 45 47 49 36 36 40 33 36 28 24 18 14 17 19 15 12 9 16 14 14 10 6 5 4 5 12
12 33 32 25 18 8 6 4 9 15 16 26 46 49 50 39 44 59 71 77 67 56 50 39 49 48 42 43 40 32 32 22 26 23 22 16 17 17 12 9 11 15 13 9 5 4 6 6 7
15 18 8 7 8 5 9 14 6 7 7 12 35 50 52 55 53 55 55 62 66 62 55 47 48 51 47 49 43 29 38 34 24 32 29 23 22 17 18 15 9 9 8 8 6 6 5 4 2
13 12 6 1 3 12 13 13 8 11 4 9 27 53 61 62 60 59 60 45 55 62 61 51 42 42 45 52 47 40 33 31 23 28 27 19 19 22 28 19 10 13 13 19 14 6 5 4 8
5 14 10 9 7 11 8 2 8 12 6 5 21 37 52 60 68 67 61 65 48 42 65 57 51 42 45 51 53 44 39 41 28 26 27 30 26 22 28 27 20 13 11 4 3 9 11 4 3
7 1 13 6 3 7 5 5 12 10 9 19 39 27 66 78 81 72 56 68 49 39 58 64 59 49 44 42 46 52 44 41 38 34 37 30 20 16 23 30 27 20 14 15 10 5 13 11 10
11 6 4 6 3 4 4 4 6 8 7 9 9 9 35 59 64 69 64 57 53 37 54 59 64 54 44 34 40 44 50 45 41 42 33 36 28 24 21 26 22 18 14 13 15 12 9 17 15
13 10 9 10 7 7 2 10 12 11 8 15 15 13 31 52 54 63 68 49 49 49 49 60 61 58 55 41 38 43 48 48 47 48 39 30 25 24 26 23 30 21 17 20 21 22 22 18 20
13 7 9 9 6 4 7 10 3 14 18 21 24 15 14 37 42 55 52 54 56 50 51 54 47 55 54 47 40 44 42 41 46 51 43 38 30 30 32 29 26 25 30 30 28 25 24 23 17
Wind_Direction_850mb
40 18 21 56 52 66 332 86 107 98 64 75 91 104 92 44 32 146 142 156 162 154 153 151 146 147 149 149 152 149 138 137 122 131 131 119 123 130 130 127 122 122 127 127 126 124 127 128 126
280 4 3 47 73 53 4 85 101 103 130 98 77 81 57 72 82 129 141 140 150 165 158 150 148 150 148 143 140 144 150 136 125 126 142 133 127 128 126 125 121 126 128 129 128 127 132 134 135
132 1 31 39 44 67 192 198 129 132 144 107 108 72 73 107 112 137 143 147 149 168 166 160 162 160 149 144 140 135 130 130 128 132 134 138 129 126 127 126 128 124 125 128 126 132 139 137 131
42 16 44 49 250 249 193 175 123 116 94 91 113 72 81 122 132 143 152 165 168 166 178 171 169 167 157 153 151 142 135 127 130 133 128 126 128 130 129 124 118 121 120 117 122 132 141 149 139
68 40 34 316 351 305 142 144 130 98 82 99 112 115 90 134 132 142 157 180 200 178 170 172 168 168 165 160 155 150 137 134 132 137 133 131 128 133 130 120 116 109 108 110 118 126 139 151 151
66 43 4 298 246 262 135 132 113 97 111 104 101 106 110 138 148 152 152 153 160 151 155 164 168 168 161 160 161 152 142 133 131 143 134 134 136 133 123 118 112 109 107 105 107 111 123 136 145
110 131 213 259 341 79 125 126 118 123 134 107 129 117 140 152 155 135 131 120 138 147 154 155 162 166 165 154 155 146 138 133 130 137 139 134 134 132 127 121 114 108 103 98 98 101 117 131 130
102 154 4 336 15 42 41 127 137 138 112 131 119 147 158 153 157 134 117 122 126 129 150 156 155 164 168 160 153 142 127 132 132 132 136 133 134 135 131 120 108 100 95 94 103 112 120 131 135
125 119 31 329 323 331 359 69 137 135 142 141 161 150 152 157 152 140 129 128 128 129 143 146 152 154 161 158 151 145 121 129 126 124 127 131 131 138 135 124 107 97 92 101 115 128 134 143 155
109 81 179 216 283 307 321 283 139 137 136 111 125 135 152 153 158 153 148 139 138 133 140 147 151 147 149 158 154 146 122 122 121 124 126 128 134 142 148 145 125 116 121 114 105 114 146 167 179
55 168 159 179 283 338 308 72 300 141 140 144 146 143 153 162 172 171 160 145 136 135 143 139 138 135 135 141 153 155 145 145 141 136 131 136 136 146 147 138 141 146 148 140 101 301 299 285 257
84 97 164 169 168 293 308 162 191 163 160 156 157 156 163 170 176 171 156 146 157 146 151 143 141 138 138 137 145 148 145 137 127 137 122 119 141 146 138 149 148 167 122 119 108 45 305 249 252
99 141 129 145 167 218 306 319 141 137 142 162 155 153 168 167 177 178 161 148 162 157 153 145 137 145 148 147 150 146 147 129 138 129 121 42 184 193 226 212 164 170 153 164 195 194 275 87 322
140 142 134 154 149 138 360 83 103 123 146 167 160 159 172 178 177 176 165 157 155 152 149 161 157 151 147 146 142 144 154 151 138 109 184 207 207 199 197 216 194 184 195 191 148 289 276 271 269
135 118 151 176 165 148 284 317 122 106 191 162 168 169 177 177 174 169 154 158 164 158 158 159 163 159 149 158 168 156 152 159 140 127 156 195 195 205 209 199 212 195 219 207 204 303 316 341 281
103 149 179 187 183 184 180 222 193 98 164 173 162 161 166 186 183 174 159 156 160 164 168 173 171 158 160 153 139 144 145 167 186 145 170 173 222 208 202 161 168 179 200 209 259 331 338 344 357
359 260 209 184 200 139 174 196 202 186 117 115 181 174 170 178 185 182 176 164 158 153 161 177 177 175 179 166 159 182 187 171 177 165 151 154 168 253 189 166 193 208 183 139 14 323 24 1 309
174 214 260 221 170 274 153 228 173 209 213 116 61 135 171 183 189 190 186 176 165 159 159 157 169 174 180 190 201 180 163 155 178 179 242 219 176 121 147 174 184 200 198 158 347 320 49 38 31
145 217 207 213 165 162 204 182 209 213 221 212 179 165 175 176 199 190 189 182 172 168 167 173 172 171 181 190 182 175 176 182 191 221 198 214 170 125 192 178 171 162 186 179 266 77 4 50 43
159 193 227 322 159 165 187 238 216 179 225 221 200 213 187 180 166 185 195 190 181 179 178 179 183 183 183 186 185 186 192 187 180 169 200 223 167 84 148 211 176 146 145 169 200 107 19 33 46
196 184 174 229 146 200 77 282 195 216 224 225 216 212 198 215 187 177 186 188 186 185 183 188 189 191 191 199 194 191 189 193 176 186 194 205 190 170 157 127 191 177 123 155 141 103 27 41 56
178 196 196 172 140 214 152 271 234 192 209 208 228 217 211 222 209 206 191 187 190 193 195 206 192 191 202 203 198 191 186 199 201 203 185 210 207 186 164 138 141 158 154 147 84 117 258 57 57
213 165 191 185 176 115 214 10 281 141 229 221 219 223 216 216 204 178 186 189 198 199 204 208 205 201 206 211 207 206 183 201 196 194 174 179 205 204 195 189 163 167 177 175 130 217 216 70 41
141 189 108 114 75 351 213 180 297 195 231 222 223 233 221 217 203 195 180 193 198 201 204 206 205 212 211 211 208 200 215 200 207 195 200 195 193 209 214 218 222 240 238 261 198 212 203 169 97
74 68 360 14 108 227 220 133 236 277 171 244 223 215 221 222 211 206 196 182 197 207 208 211 209 205 206 208 211 209 208 216 222 204 196 205 200 204 206 218 217 266 256 239 249 237 167 150 102
139 143 159 212 206 245 261 182 278 296 17 312 360 230 217 223 217 207 212 201 204 210 214 218 215 207 205 212 214 214 211 225 229 209 208 212 211 219 218 219 215 224 220 191 232 221 196 228 147
274 169 186 150 109 82 281 9 282 307 40 40 2 228 212 219 220 214 214 202 197 214 215 216 218 212 218 219 213 216 220 221 216 213 214 212 213 227 223 223 223 208 200 217 258 234 224 229 231
149 181 38 16 181 190 296 307 248 297 317 332 20 307 222 216 213 211 210 198 193 206 213 213 221 219 220 217 216 214 214 212 214 209 216 228 236 240 237 199 200 208 209 225 239 264 298 253 257
16 10 19 107 92 150 151 274 222 230 294 297 302 312 220 212 211 210 210 215 213 209 212 209 219 221 220 215 214 212 210 209 216 217 223 225 217 214 214 213 212 210 220 236 238 247 259 268 235
85 73 107 102 304 111 143 261 276 222 242 271 303 325 197 216 208 207 208 213 199 210 206 209 221 221 228 221 218 217 214 214 218 222 224 232 240 224 231 230 230 234 239 239 239 249 256 243 241